Back to catalog

EUTE 2-F1

AliveCommunicationsGEO
NORAD 20777·PAYLOAD·🇪🇺 EU

Launched Aug 30, 1990 from Guiana Space Centre

Loading…

TLE

FreshSource: Space-Track

Epoch: Sep 14, 2026, 00:08 UTC

1 20777U 90079B   26257.00588977 -.00000147  00000-0  00000-0 0  9997
2 20777  14.9015 357.2706 0005490 248.0686 114.8843  0.99349105111650

Track EUTE 2-F1 in real time with AllMySat

Download on the App Store